Waco, TX

7:51 AM CST on November 22, 2017 (GMT -0600)
Waco Regional

Weather History for KACT - March, 2014

Change the Weather History Date:

Monday, March 31, 2014

  Actual Average Record
Temperature  
Mean Temperature 69 °F 62 °F  
Max Temperature 82 °F 74 °F 93 °F (1946)
Min Temperature 56 °F 51 °F 28 °F (1937)
Degree Days  
Heating Degree Days 0 5  
Month to date heating degree days 350 246  
Since 1 July heating degree days 2493 2058  
Cooling Degree Days 4 2  
Month to date cooling degree days 15 34  
Year to date cooling degree days 15 43  
Growing Degree Days 18 (Base 50)    
Moisture  
Dew Point 54 °F    
Average Humidity 66    
Maximum Humidity 86    
Minimum Humidity 45    
Precipitation  
Precipitation 0.00 in 0.09 in 1.80 in (1919)
Month to date precipitation 0.87 3.15  
Year to date precipitation 1.63 7.90  
Snow  
Snow 0.00 in 0.00 in 0.00 in ()
Month to date snowfall 0.1 0.1  
Since 1 July snowfall 0.1 0.9  
Snow Depth 0.00 in    
Sea Level Pressure  
Sea Level Pressure 29.91 in    
Wind  
Wind Speed 17 mph (South)    
Max Wind Speed 26 mph    
Max Gust Speed 36 mph    
Visibility 10 miles    
Events      
T = Trace of Precipitation, MM = Missing Value Source: NWS Daily Summary

Daily Weather History Graph

Daily Weather History Graph

Search for Another Location

Airport or City:

Trip Planner

Search our weather history database for the weather conditions in past years. The results will help you decide how hot, cold, wet, or windy it might be!

Date:

Astronomy

Mar. 31, 2014 Rise Set
Actual Time 7:18 AM CDT 7:47 PM CDT
Civil Twilight 6:54 AM CDT 8:12 PM CDT
Nautical Twilight 6:25 AM CDT 8:41 PM CDT
Astronomical Twilight 5:56 AM CDT 9:10 PM CDT
Moon 7:46 AM CDT (3/31) 9:02 PM CDT (3/31)
Length of Visible Light 13h 18m
Length of Day
12h 29m
New Moon, 1% of the Moon is Illuminated
Mar 31
New Moon
Apr 7
First Quarter
Apr 15
Full
Apr 22
Last Quarter
Apr 29
New

Hourly Weather History & Observations

Time (CDT) Temp. Heat Index Dew Point Humidity Pressure Visibility Wind Dir Wind Speed Gust Speed Precip Events Conditions
12:51 AM 59.0 °F - 46.9 °F 64% 30.00 in 10.0 mi South 19.6 mph - N/A   Clear
1:42 AM 57.2 °F - 48.2 °F 72% 29.99 in 10.0 mi South 17.3 mph - N/A   Mostly Cloudy
1:51 AM 57.9 °F - 48.9 °F 72% 29.98 in 10.0 mi South 18.4 mph - N/A   Overcast
2:37 AM 57.2 °F - 50.0 °F 77% 29.97 in 10.0 mi South 19.6 mph - N/A   Scattered Clouds
2:51 AM 57.0 °F - 50.0 °F 77% 29.95 in 10.0 mi South 18.4 mph - N/A   Clear
3:51 AM 55.9 °F - 50.0 °F 80% 29.94 in 10.0 mi SSE 13.8 mph - N/A   Clear
4:09 AM 55.4 °F - 50.0 °F 82% 29.94 in 10.0 mi South 15.0 mph - N/A   Mostly Cloudy
4:51 AM 57.0 °F - 51.1 °F 81% 29.93 in 10.0 mi South 12.7 mph - N/A   Overcast
5:31 AM 57.2 °F - 51.8 °F 82% 29.93 in 10.0 mi South 16.1 mph - N/A   Mostly Cloudy
5:51 AM 57.0 °F - 52.0 °F 83% 29.92 in 10.0 mi South 17.3 mph - N/A   Overcast
6:51 AM 57.0 °F - 53.1 °F 87% 29.91 in 10.0 mi SSE 17.3 mph 24.2 mph N/A   Overcast
7:51 AM 57.0 °F - 53.1 °F 87% 29.92 in 10.0 mi SSE 15.0 mph - N/A   Mostly Cloudy
8:37 AM 59.0 °F - 55.4 °F 88% 29.92 in 10.0 mi SSE 15.0 mph - N/A   Mostly Cloudy
8:51 AM 60.1 °F - 55.0 °F 83% 29.94 in 10.0 mi South 13.8 mph - N/A   Overcast
9:51 AM 64.0 °F - 57.0 °F 78% 29.93 in 10.0 mi South 15.0 mph - N/A   Overcast
10:51 AM 68.0 °F - 57.0 °F 68% 29.94 in 10.0 mi South 19.6 mph 26.5 mph N/A   Mostly Cloudy
11:31 AM 71.6 °F - 57.2 °F 60% 29.95 in 10.0 mi South 20.7 mph 28.8 mph N/A   Scattered Clouds
11:51 AM 71.1 °F - 57.0 °F 61% 29.93 in 10.0 mi South 20.7 mph 29.9 mph N/A   Mostly Cloudy
12:51 PM 75.0 °F - 57.0 °F 53% 29.91 in 10.0 mi SSW 23.0 mph 31.1 mph N/A   Partly Cloudy
1:51 PM 77.0 °F - 57.0 °F 50% 29.90 in 10.0 mi South 21.9 mph 26.5 mph N/A   Mostly Cloudy
2:51 PM 79.0 °F - 57.0 °F 47% 29.88 in 10.0 mi South 17.3 mph 25.3 mph N/A   Scattered Clouds
3:51 PM 78.1 °F - 57.9 °F 50% 29.86 in 10.0 mi South 17.3 mph 26.5 mph N/A   Clear
4:51 PM 81.0 °F 81.1 °F 57.9 °F 45% 29.84 in 10.0 mi South 19.6 mph - N/A   Clear
5:51 PM 79.0 °F - 57.0 °F 47% 29.83 in 10.0 mi South 17.3 mph - N/A   Clear
6:51 PM 77.0 °F - 57.0 °F 50% 29.83 in 10.0 mi South 18.4 mph - N/A   Clear
7:51 PM 73.9 °F - 57.9 °F 57% 29.84 in 10.0 mi SSE 12.7 mph - N/A   Clear
8:51 PM 73.0 °F - 57.9 °F 59% 29.86 in 10.0 mi SSE 16.1 mph - N/A   Clear
9:51 PM 71.1 °F - 59.0 °F 66% 29.88 in 10.0 mi SSE 16.1 mph - N/A   Clear
10:51 PM 69.1 °F - 59.0 °F 70% 29.89 in 10.0 mi SSE 15.0 mph - N/A   Clear
11:51 PM 66.9 °F - 59.0 °F 76% 29.91 in 10.0 mi SSE 15.0 mph - N/A   Clear